Home > Weather > Langley > Past weeks

Flag for Canada Weather for the Past 2 Weeks in Langley, British Columbia, Canada

Now
46 °F

Cool.


Feels Like: 46 °F
Forecast: 47 / 50 °F
Wind: 2 mph from North

Location: P. Meadows Coastal Station

Current Time: Feb 14, 2016 at 4:28:09 PM

Latest Report: Feb 14, 2016 at 3:00 PM


Visibility: N/A

Pressure: 30.07 "Hg

Humidity: 98%

Dew point: 45 °F

Location of LangleyLocation

Historic Weather in Langley — Graph

°F

Langley Temperature Yesterday

Maximum temperature yesterday: 47 °F (at 11:00 AM)
Minimum temperature yesterday: 41 °F (at 11:00 PM)
Average temperature yesterday: 44 °F

High & Low Weather Summary for the Past Weeks

 TemperatureHumidityPressure
High59 °F (Feb 9, 4:00 PM)100% (Feb 1, 4:00 AM)30.62 "Hg (Feb 1, 4:00 AM)
Low33 °F (Feb 7, 6:00 AM)55% (Feb 9, 4:00 PM)29.90 "Hg (Jan 30, 2:00 PM)
Average43 °F90%30.20 "Hg
* Reported Jan 30 2:00 PM — Feb 14 2:00 PM, Langley, Weather by CustomWeather, © 2016

Note: Actual official high and low records may vary slightly from our data, if they occured in-between our weather recording intervals... More about our weather records

Advertising

Langley Weather History for the Previous 24 Hours

 ConditionsComfort  
Time TempWeatherWind HumidityBarometerVisibility
2:00 PM
Sun, Feb 14
45 °FCool.5 mph97%30.07 "HgN/A
1:00 PM45 °FQuite cool.3 mph97%30.08 "HgN/A
12:00 PM44 °FQuite cool.5 mph97%30.09 "HgN/A
11:00 AM43 °FQuite cool.7 mph97%30.08 "HgN/A
10:00 AM43 °FQuite cool.3 mph98%30.09 "HgN/A
9:00 AM42 °FQuite cool.3 mph97%30.09 "HgN/A
8:00 AM42 °FQuite cool.6 mph97%30.10 "HgN/A
7:00 AM42 °FQuite cool.2 mph97%30.10 "HgN/A
6:00 AM42 °FQuite cool.8 mph97%30.10 "HgN/A
5:00 AM42 °FQuite cool.2 mph97%30.10 "HgN/A
4:00 AM41 °FQuite cool.5 mph98%30.10 "HgN/A
3:00 AM41 °FQuite cool.6 mph97%30.11 "HgN/A
2:00 AM41 °FQuite cool.6 mph97%30.11 "HgN/A
1:00 AM41 °FQuite cool.5 mph97%30.11 "HgN/A
12:00 AM41 °FQuite cool.10 mph96%30.09 "HgN/A
11:00 PM
Sat, Feb 13
41 °FQuite cool.7 mph97%30.07 "HgN/A
10:00 PM42 °FQuite cool.8 mph97%30.05 "HgN/A
9:00 PM43 °FQuite cool.8 mph97%30.05 "HgN/A
8:00 PM44 °FQuite cool.6 mph97%30.05 "HgN/A
7:00 PM44 °FQuite cool.5 mph94%30.04 "HgN/A
6:00 PM44 °FQuite cool.3 mph96%30.03 "HgN/A
5:00 PM44 °FQuite cool.7 mph94%30.02 "HgN/A
4:00 PM43 °FQuite cool.7 mph96%30.06 "HgN/A
Weather by CustomWeather, © 2016

See weather overviewHow to use our weather pages